This is the latest recevied weather packets stored in our database for station/object KB9YVI-11. If no packets are shown the sender has not sent any weather packets the latest 10 day(s).
| Time | Temp. | Humidity | Pressure | Rain* | Wind** | Luminosity | Snow |
|---|---|---|---|---|---|---|---|
| 1788108127 | 30.56° C | 81% | 0 hPa | 0 mm | - | - | - |
| 1788107527 | 30.56° C | 82% | 0 hPa | 0 mm | - | - | - |
| 1788107231 | 30.56° C | 81% | 0 hPa | 0 mm | - | - | - |
| 1788106926 | 30.56° C | 82% | 0 hPa | 0 mm | - | - | - |
| 1788106327 | 30° C | 81% | 0 hPa | 0 mm | - | - | - |
| 1788106027 | 30° C | 84% | 0 hPa | 0 mm | - | - | - |
| 1788105727 | 29.44° C | 83% | 0 hPa | 0 mm | - | - | - |
| 1788105427 | 28.89° C | 85% | 0 hPa | 0 mm | - | - | - |
| 1788105127 | 28.89° C | 88% | 0 hPa | 0 mm | - | - | - |
| 1788104827 | 28.33° C | 89% | 0 hPa | 0 mm | - | - | - |
| 1788103629 | 28.33° C | 89% | 0 hPa | 0 mm | - | - | - |
| 1788103326 | 27.78° C | 91% | 0 hPa | 0 mm | - | - | - |
| 1788103027 | 27.78° C | 90% | 0 hPa | 0 mm | - | - | - |
| 1788102727 | 27.78° C | 89% | 0 hPa | 0 mm | - | - | - |
| 1788101227 | 27.22° C | 92% | 0 hPa | 0 mm | - | - | - |
| 1788100027 | 26.67° C | 96% | 0 hPa | 0 mm | - | - | - |
| 1788099726 | 26.11° C | 97% | 0 hPa | 0 mm | - | - | - |
| 1788098828 | 24.44° C | 100% | 0 hPa | 0 mm | - | - | - |
| 1788096126 | 21.11° C | 100% | 0 hPa | 0 mm | - | - | - |
| 1788092527 | 18.89° C | 100% | 0 hPa | 0 mm | - | - | - |
| 1788092228 | 18.89° C | 100% | 0 hPa | 0 mm | - | - | - |
| 1788091628 | 18.33° C | 100% | 0 hPa | 0 mm | - | - | - |
| 1788091028 | 18.33° C | 100% | 0 hPa | 0 mm | - | - | - |
| 1788090128 | 18.33° C | 100% | 0 hPa | 0 mm | - | - | - |
| 1788089828 | 18.33° C | 100% | 0 hPa | 0 mm | - | - | - |
* Rain latest hour (hover to see other rain measurements)
** Current wind speed in m/s (hover to see current wind gust speed)